Regional Weather Roundup
Issued by NWS

Home | Current Version | Previous Version | Text Only | Print | Product List | Glossary On
Versions: 1 2 3 4 5 6 7 8 9 10 11 12 13 14 15 16 17 18 19 20 21 22 23 24 25 26 27 28 29 30 31 32 33 34 35 36 37 38 39 40 41 42 43 44 45 46 47 48 49 50
000
ASUS43 KDTX 011601
RWRMI
MICHIGAN HOURLY REGIONAL WEATHER ROUNDUP
NATIONAL WEATHER SERVICE DETROIT/PONTIAC MI
1200 PM EDT WED JUL 01 2015

NOTE: "FAIR" INDICATES FEW OR NO CLOUDS BELOW 12,000 FEET WITH NO
SIGNIFICANT WEATHER AND/OR OBSTRUCTION TO VISIBILITY.

MIZ047>049-052>055-059>063-066>070-074>076-081>083-011700-
SOUTHEAST LOWER MICHIGAN

CITY           SKY/WX    TMP DP  RH WIND       PRES   REMARKS
ADRIAN         PTSUNNY   67  58  72 NW9       29.92R
ALMA           CLOUDY    60  55  84 W7        29.94R
ANN ARBOR      CLOUDY    66  59  78 N8        29.91R
BAD AXE        CLOUDY    63  58  83 NW6       29.90R
CARO           CLOUDY    61  57  88 NW6       29.90S
DETROIT CITY   MOSUNNY   70  58  65 VRB6      29.88S
DETROIT        CLOUDY    70  60  70 W9        29.90S
FLINT          CLOUDY    64  56  75 W8        29.92R
GROSSE ILE     SUNNY     70  63  78 W9        29.88S
HILLSDALE      CLOUDY    66  59  79 W9        29.94R
HOWELL         CLOUDY    64  58  83 W12       29.92R

CITY           SKY/WX    TMP DP  RH WIND       PRES   REMARKS
JACKSON        CLOUDY    63  57  81 W10       29.94R
LAMBERTVILLE   CLOUDY    70  58  66 W6        29.91R
LANSING        CLOUDY    59  55  87 W12       29.95R
LAPEER         CLOUDY    62  58  87 NW6       29.91R
MASON          CLOUDY    59  56  89 W8        29.94R
MONROE         CLOUDY    69  60  74 W9        29.89R
MT. CLEMENS    PTSUNNY   70  61  71 W9        29.87R
PONTIAC        CLOUDY    65  57  75 W12       29.89S
PORT HOPE        N/A     60  59  96 VRB5      29.88R
PORT HURON     CLOUDY    66  61  82 NW6       29.89R
TRI CITIES     CLOUDY    63  55  75 NW8       29.92R
MIDLAND        CLOUDY    63  54  73 NW5       29.91S
TROY           CLOUDY    67  59  76 W7        29.91S
SAGINAW HB     CLOUDY    64  55  72 W6        29.90S
$$
MIZ043>046-050>051-056>058-064>065-071>073-077>080-011700-
SOUTHWEST LOWER MICHIGAN

CITY           SKY/WX    TMP DP  RH WIND       PRES   REMARKS
BATTLE CREEK   PTSUNNY   63  54  72 NW8       29.96R
BENTON HARBOR  CLOUDY    60  52  74 NW9       29.99R
BIG RAPIDS     CLOUDY    59  49  70 NW6       29.94R
COLDWATER      PTSUNNY   64  55  72 W7        29.95R
FREMONT        CLOUDY    57  52  81 NW10      29.95R
HOLLAND        MOSUNNY   62  48  60 NW12      29.97S
GRAND RAPIDS   PTSUNNY   62  51  67 NW8       29.95R
IONIA          CLOUDY    61  52  72 W9        29.94R
KALAMAZOO      PTSUNNY   67  53  61 NW9       29.96R
LUDINGTON      CLOUDY    56  52  86 N7        29.97S
MARSHALL       CLOUDY    65  56  73 W6        29.94R
MOUNT PLEASANT CLOUDY    62  54  75 W3        29.92S
MUSKEGON       PTSUNNY   60  50  69 NW14      29.96R
SOUTH HAVEN    CLOUDY    60  50  70 NW10      29.98R
$$
MIZ016>042-011700-
NORTHERN LOWER MICHIGAN

CITY           SKY/WX    TMP DP  RH WIND       PRES   REMARKS
ALPENA         CLOUDY    60  56  86 N8        29.89S
BEAVER ISLAND  CLOUDY    53  49  85 N6        29.95R
BELLAIRE       CLOUDY    56  51  85 W7        29.95R
CADILLAC       CLOUDY    56  50  81 W6        29.93S
CHARLEVOIX     CLOUDY    54  51  92 NW7       29.97R
FRANKFORT      CLOUDY    54  47  76 N6        29.97R
GAYLORD        CLOUDY    55  55 100 NW8       29.92R FOG
GRAYLING       CLOUDY    56  52  85 W7        29.93R
HARBOR SPRINGS CLOUDY    56  53  89 NW6       29.93R
HOUGHTON LAKE  CLOUDY    58  51  78 N9        29.93R
MANISTEE       CLOUDY    52  46  82 N10G16    29.97R
OSCODA         CLOUDY    65  56  73 NW6       29.88S
PELLSTON       CLOUDY    58  53  84 NW10      29.93R
ROGERS CITY    CLOUDY    57  55  92 N5        29.90S
TRAVERSE CITY  CLOUDY    55  49  80 NW6       29.94R
$$
MIZ007>008-015-011700-
EASTERN UPPER MICHIGAN

CITY           SKY/WX    TMP DP  RH WIND       PRES   REMARKS
KINROSS        CLOUDY    55  54  94 NW10      29.92R
MACKINAC ISLAN CLOUDY    58  55  89 W6        29.91R
NEWBERRY       CLOUDY    56  49  77 NW13      29.95R
S. S. MARIE    CLOUDY    58  50  75 N6        29.91R
MUNISING         N/A     50  45  83 NW12      30.00S
$$
MIZ004>006-011>014-085-011700-
CENTRAL UPPER MICHIGAN

CITY           SKY/WX    TMP DP  RH WIND       PRES   REMARKS
MANISTIQUE     PTSUNNY   58  49  70 NW12G17   29.96R
ESCANABA       MOSUNNY   59  46  63 NW13      29.97S
MENOMINEE      CLOUDY    57  46  67 NW7       29.99R
SAWYER-GWINN   SUNNY     55  43  62 N14G20    30.01
$$
MIZ001>003-009>011-084-011700-
WESTERN UPPER MICHIGAN

CITY           SKY/WX    TMP DP  RH WIND       PRES   REMARKS
IRON MOUNTAIN  SUNNY     63  42  46 N10       29.99R
HOUGHTON       SUNNY     62  43  49 VRB3      30.02S
COPPER HARBOR    N/A     53  43  68 N7        30.03S
IRONWOOD       SUNNY     63  45  51 NE5       30.00S
$$

ABBREVIATIONS USED IN REMARKS
   TC - TEMPERATURE IN CELSIUS
  WCI - WIND CHILL INDEX
   HX - HEAT INDEX
  VSB - VISIBILITY




USA.gov is the U.S. government's official web portal to all federal, state and local government web resources and services.